Zurück zum Katalog

STARLINK-35164

AktivKommunikationVLEO
NORAD 65519·PAYLOAD·🇺🇸 United States

Gestartet Sep 5, 2025 von Cape Canaveral Space Force Station

Loading…

Nächste Überflüge (nächste 24 Stunden)

TLE

AktuellSource: CelesTrak SupGP

Epoche: Sep 14, 2026, 21:03 UTC

1 65519C 25198AD  26257.87756944 -.00042652  00000+0 -12604-2 0  2575
2 65519  53.1565 108.2662 0001252  92.4625 191.1448 15.34407067    12

Verfolge STARLINK-35164 in Echtzeit mit AllMySat

Download on the App Store